Location: St Andrew
(49.4460°N, 2.5750°W)
Time: 10:28:25
(UTC+00:00)

Daily predictions for brighter satellites

Satellite Brightness Start Highest point End
(mag) Time Altitude Azimuth Time Altitude Azimuth Time Altitude Azimuth
Cosmos 2218 Rocket 4.2 17:21:35 10° N 17:27:35 49° ENE 17:33:30 10° SSE
Cosmos 2237 Rocket 4.3 17:23:57 10° WNW 17:27:45 18° NW 17:31:33 10° N
CZ-4 R/B 1.5 17:25:34 10° SSE 17:29:44 61° ENE 17:33:56 10° N
Meteor 1-21 Rocket 4.4 17:24:13 10° S 17:30:02 63° E 17:35:55 10° NNE
KORONAS-FOTON 3.7 17:27:25 10° S 17:31:12 78° E 17:34:59 10° NNE
Cosmos 1346 Rocket 3.8 17:29:00 10° NNE 17:32:13 24° ENE 17:35:25 10° ESE
CZ-2C R/B 4.4 17:28:32 10° NNE 17:32:53 35° E 17:37:08 10° SSE
RESURS DK-1 4.4 17:33:48 10° NNE 17:35:17 12° NE 17:36:47 10° NE
USA 215 3.6 17:29:57 10° ENE 17:36:20 58° NNW 17:42:43 10° W
H-2A R/B 4.3 17:36:18 10° ESE 17:38:48 17° ENE 17:41:19 10° NNE
Cosmos 1455 3.6 17:37:08 10° NNE 17:39:49 18° ENE 17:42:28 10° ESE
Cosmos 1315 Rocket 3.5 17:37:42 10° SSE 17:41:11 31° E 17:44:41 10° NNE
Cosmos 1408 Rocket 4.5 17:38:36 10° SSE 17:42:13 27° E 17:45:51 10° NNE
Cosmos 1656 Rocket 3.6 17:40:13 10° NNW 17:45:42 75° ENE 17:51:14 10° SE
IRS-1A Rocket 4.2 17:40:25 10° SSE 17:45:56 72° ENE 17:51:37 10° NNW
NOAA 12 4.4 17:41:03 10° SE 17:45:58 43° ENE 17:50:55 10° N
Cosmos 44 4.0 17:43:55 10° S 17:47:41 30° ESE 17:51:03 13° ENE
CORIOLIS 4.3 17:43:00 10° SSE 17:48:21 80° WSW 17:53:44 10° NNW
COSMO-SKYMED 1 3.2 17:45:09 10° NNE 17:49:08 34° E 17:53:06 10° SSE
Cosmos 1076 Rocket 3.5 17:45:30 10° S 17:49:49 63° E 17:54:09 10° NNE
NOSS 2-1 (C) 3.9 17:47:24 10° WSW 17:51:06 55° NW 17:55:29 10° NE
Cosmos 1674 3.9 17:48:03 10° SSW 17:51:39 43° WNW 17:55:14 10° N
NOSS 2-1 (D) 3.9 17:48:05 10° WSW 17:51:46 54° NW 17:56:10 10° NE
Cosmos 2369 Rocket 4.2 17:46:53 10° NW 17:51:55 33° WSW 17:56:56 10° SSW
Cosmos 1241 Rocket 4.5 17:45:53 10° NW 17:52:03 60° NE 17:58:12 10° SE
SL-24 R/B - RUBIN 2 3.9 17:49:18 10° NW 17:53:56 73° SW 17:58:14 10° SSE
USA 116 4.1 17:50:19 10° NNE 17:54:32 62° ESE 17:59:17 10° S
Cosmos 1943 Rocket 3.5 17:51:08 10° NW 17:56:26 44° WSW 18:01:38 10° S
SMAP 3.9 17:52:51 10° S 17:57:24 54° W 18:02:00 10° NNW
Meteor 2-2 Rocket 4.2 17:52:53 10° N 17:58:39 68° ENE 18:04:17 10° SSE
Cosmos 1626 2.8 17:56:18 10° SSE 17:59:38 33° E 18:03:01 10° NNE
Ariane Rocket 3.7 17:55:10 10° S 18:00:09 59° WSW 18:05:11 10° NNW
MOS 1 4.2 17:56:02 10° SSE 18:01:36 66° ENE 18:07:13 10° N
EO 1 Del DPAF 4.2 17:59:10 12° NE 18:02:03 26° E 18:05:19 10° SSE
Cosmos 2366 rocket 3.9 17:55:56 10° N 18:02:13 77° E 18:08:24 10° SSE
Cosmos 1328 3.9 18:00:49 10° S 18:04:44 54° E 18:08:42 10° NNE
Landsat 4 4.3 18:01:33 10° NNE 18:05:04 36° E 18:08:31 10° SSE
Cosmos 2228 Rocket 3.7 18:01:30 10° N 18:05:46 37° ENE 18:10:01 10° SE
Cosmos 1400 Rocket 3.3 18:03:58 10° SSW 18:08:01 66° WNW 18:12:09 10° N
Cosmos 1328 Rocket 3.7 18:04:59 10° N 18:09:16 49° ENE 18:13:28 10° SSE
Cosmos 1743 Rocket 4.4 18:06:54 10° SE 18:10:33 27° E 18:13:15 15° NE
TELKOM 3 2.7 18:15:02 10° W 18:17:09 77° N 18:17:35 50° ENE
TIMED 4.5 18:13:07 10° NNW 18:17:28 60° ENE 18:21:47 10° SE
Cosmos 1300 3.9 18:14:31 10° NNW 18:18:12 44° W 18:21:50 10° SSW
SKYMED 3 4.5 18:14:57 10° NNE 18:19:19 68° ESE 18:23:38 10° S
Cosmos 1777 Rocket 4.2 18:14:59 10° NNW 18:20:15 77° WSW 18:25:29 10° SSE
ERS-2 2.2 18:17:14 10° SSE 18:20:50 53° ENE 18:24:27 10° N
FENGYUN 3A 3.6 18:16:24 10° SSE 18:21:46 87° ENE 18:27:11 10° NNW
Cosmos 1980 Rocket 3.8 18:19:36 10° N 18:23:01 16° NNE 18:23:44 16° NE
Cosmos 1703 3.6 18:21:13 10° SSE 18:24:58 43° E 18:27:39 18° NNE
Cosmos 44 Rocket 3.4 18:20:40 10° SSW 18:25:14 53° ESE 18:27:51 24° NE
Nadezhda 3 Rocket 4.3 18:19:51 10° SSE 18:25:48 45° E 18:31:49 10° NNE
Cosmos 1340 3.8 18:23:45 10° N 18:26:10 25° NE 18:26:10 25° NE
SPOT 3 Rocket 3.5 18:22:17 10° SSE 18:27:26 83° ENE 18:32:37 10° NNW
Cosmos 1766 Rocket 3.5 18:25:13 10° S 18:29:33 89° WNW 18:33:55 10° N
ATLAS 5 CENTAUR R/B 3.8 18:30:22 10° NW 18:34:13 20° N 18:36:18 16° NE
ERBS 2.2 18:31:34 10° NW 18:34:58 66° NNE 18:35:46 46° E
NOSS 3-4 (A) 4.4 18:28:26 10° NW 18:35:16 59° SW 18:42:36 10° SSE
NOSS 3-4 (C) 4.4 18:28:32 10° NW 18:35:23 59° SW 18:42:43 10° SSE
Geosat 4.3 18:30:51 10° NNE 18:35:52 66° NW 18:40:50 10° SW
SKYMED 2 3.6 18:32:59 10° NNE 18:37:21 81° WNW 18:41:42 10° SSW
USA 81 4.2 18:34:27 10° SSE 18:39:29 48° E 18:44:33 10° NNE
SJ-6B 4.0 18:42:12 26° NNE 18:42:12 26° NNE 18:44:13 10° N
Cosmos 1151 Rocket 2.9 18:37:23 10° N 18:41:47 67° ENE 18:46:09 10° SSE
Cosmos 2278 4.3 18:36:57 10° NNW 18:42:13 36° NE 18:43:36 31° ENE
Cosmos 1934 Rocket 4.3 18:38:10 10° N 18:44:16 45° ENE 18:50:21 10° SE
ALOS 3.0 18:40:07 10° S 18:44:41 55° W 18:49:18 10° NNW
Meteor 1-27 4.3 18:39:03 10° NNW 18:44:46 80° W 18:50:32 10° S
Cosmos 332 Rocket 4.0 18:41:42 10° S 18:46:22 46° ESE 18:47:46 36° ENE
MTI 4.1 18:44:25 19° N 18:46:35 64° WNW 18:49:45 10° SSW
YAOGAN 1 4.5 18:44:10 10° SSW 18:48:04 32° W 18:51:58 10° NNW
Cosmos 2058 2.8 18:46:01 10° S 18:50:08 65° E 18:52:15 28° NNE
Cosmos 1605 Rocket 4.4 18:44:38 10° N 18:50:13 35° ENE 18:51:06 33° E
Cosmos 1898 Rocket 3.7 18:45:09 10° NNW 18:50:20 48° ENE 18:52:11 34° ESE
TSX-5 3.9 18:47:26 10° SW 18:50:40 59° NW 18:52:11 31° NNE
Meteor 1-11 4.2 18:45:28 10° S 18:51:05 90° ESE 18:56:49 10° NNE
COSMOS 2406 3.2 18:48:33 10° S 18:54:10 60° ESE 18:56:47 31° NE
Lacrosse 5 4.0 18:53:45 10° SSE 18:54:29 12° SSE 18:54:29 12° SSE
Cosmos 2369 4.0 18:51:32 10° NNW 18:57:04 46° NE 18:58:18 40° E
Cosmos 2098 Rocket 4.1 18:55:05 10° NNW 19:00:11 66° W 19:06:34 10° S
Cosmos 2239 Rocket 4.3 18:56:19 10° N 19:02:29 76° E 19:08:38 10° SSE
Cosmos 909 Rocket 4.4 18:58:01 10° NW 19:05:00 70° WSW 19:11:12 10° SSE
Cosmos 990 Rocket 4.3 19:00:53 10° NNW 19:05:48 45° NE 19:05:48 45° NE
FengYun 1-2 T 4.3 19:01:17 10° SSE 19:06:55 80° WSW 19:12:33 10° NNW
Cosmos 1656 3.8 19:03:54 10° NNW 19:09:12 48° NE 19:09:23 48° ENE
Cosmos 1697 Rocket 3.3 19:04:12 10° NNW 19:08:56 36° NE 19:08:56 36° NE
GEOS 3 Rocket 3.6 19:07:52 32° SE 19:10:30 90° NE 19:15:57 10° NW
H-2A R/B 3.5 19:08:55 10° S 19:12:39 53° W 19:16:29 10° NNW
Envisat 2.9 19:13:23 58° ENE 19:13:25 58° ENE 19:18:25 10° N
Cosmos 2151 3.0 19:09:27 10° SSW 19:13:43 78° W 19:15:36 33° N
RESURS DK-1 3.3 19:10:11 10° NNW 19:12:59 37° N 19:12:59 37° N
Cosmos 1455 3.3 19:12:03 10° NNW 19:15:44 43° W 19:19:23 10° SSW
Cosmos 1515 Rocket 4.4 19:12:14 10° NNW 19:16:29 50° W 19:20:38 10° S
USA 215 3.8 19:16:39 35° NE 19:18:47 46° N 19:24:58 10° WNW
Cosmos 1570 Rocket 3.9 19:14:30 10° S 19:19:45 66° ESE 19:19:56 65° E
Meteor 2-15 4.3 19:14:29 10° S 19:20:36 83° E 19:26:44 10° NNE
COSMO-SKYMED 1 4.4 19:21:28 10° N 19:25:14 29° WNW 19:28:59 10° SW
Resurs 01 Rocket 3.8 19:30:54 16° N 19:30:54 16° N 19:31:47 10° N
Cosmos 44 3.9 19:24:34 10° WSW 19:28:45 44° NW 19:29:30 40° NNW
Cosmos 371 Rocket 3.2 19:26:29 10° SSW 19:31:18 83° WNW 19:31:26 81° NNW
Meteor 2-10 Rocket 3.8 19:26:41 10° N 19:30:36 52° N 19:30:36 52° N
Cosmos 1500 Rocket 4.1 19:28:47 10° SSW 19:33:12 59° WNW 19:34:30 41° NNW
Cosmos 2322 Rocket 4.2 19:30:47 10° N 19:32:40 15° N 19:32:40 15° N
Cosmos 2298 Rocket 4.2 19:34:30 10° NNW 19:38:54 60° N 19:38:54 60° N
Thor Agena Rocket 3.6 19:42:28 68° SSW 19:42:28 68° SSW 19:46:58 10° SSW
Cosmos 1937 Rocket 3.6 19:37:31 10° NNW 19:42:07 68° NNW 19:42:07 68° NNW
Meteor 2-15 Rocket 4.5 19:41:48 10° SSW 19:47:55 76° WNW 19:54:03 10° N
Meteor 2-17 Rocket 4.3 19:42:28 10° N 19:47:58 72° NNE 19:47:58 72° NNE
SL-16 R/B 4.2 19:52:43 10° NNW 19:54:22 16° N 19:54:22 16° N
Cosmos 1980 Rocket 3.6 20:02:44 10° NNW 20:05:31 29° N 20:05:31 29° N
ATLAS 5 CENTAUR R/B 3.9 20:15:19 10° NW 20:17:52 24° NNW 20:17:52 24° NNW
Cosmos 2344 4.4 20:44:28 10° NW 20:53:43 69° NNE 20:53:43 69° NNE
USA 215 4.4 21:03:59 37° NW 21:03:59 37° NW 21:07:45 10° WNW
